Miscellaneous Local Product
Issued by NWS Hastings, NE

Home | Current Version | Previous Version | Text Only | Print | Product List | Glossary On
Versions: 1 2 3 4 5 6 7 8 9 10 11 12 13 14 15 16 17 18 19 20 21 22 23 24 25 26 27 28 29 30 31 32 33 34 35 36 37 38 39 40 41 42 43 44 45 46 47 48 49 50
000
AXUS43 KGID 230110
MISGRI

GID CWA HOURLY WEATHER ROUNDUP
NATIONAL WEATHER SERVICE HASTINGS NE
800 PM CDT MON SEP 22 2014

NOTE: "FAIR" INDICATES FEW OR NO CLOUDS BELOW 12,000 FEET WITH NO
SIGNIFICANT WEATHER AND/OR OBSTRUCTIONS TO VISIBILITY.

...SOUTH CENTRAL NEBRASKA...

CITY           SKY/WX    TMP DP  RH WIND       PRES   REMARKS
GRAND ISLAND   CLOUDY    67  49  52 S7        30.17R
HASTINGS       CLOUDY    67  47  48 SE8       30.16R
KEARNEY        CLOUDY    66  48  52 E5        30.16R
ORD            LGT RAIN  60  56  86 S5        30.13S
YORK           CLOUDY    64  50  59 S6        30.17R
AURORA         CLOUDY    66  48  51 S6        30.17R
LEXINGTON      CLOUDY    62  56  79 E7        30.13R
HOLDREGE       CLOUDY    66  48  51 SE7       30.13S
HEBRON         CLOUDY    63  51  65 SE3       30.17S

...NEBRASKA PANHANDLE...

CITY           SKY/WX    TMP DP  RH WIND       PRES   REMARKS
CHADRON        CLOUDY    67  56  67 S5        29.99S
ALLIANCE       PTCLDY    63  55  75 S13       30.05S
SCOTTSBLUFF    PTCLDY    62  58  86 E6        30.05R
SIDNEY         CLOUDY    66  55  67 SE17G24   30.07F

...WESTERN AND NORTH CENTRAL NEBRASKA...

CITY           SKY/WX    TMP DP  RH WIND       PRES   REMARKS
VALENTINE      LGT RAIN  61  54  77 S10       30.06F
AINSWORTH      CLOUDY    58  54  85 S12       30.09S
ONEILL         CLOUDY    68  52  57 S12       30.11F
BROKEN BOW     LGT RAIN  60  56  86 SE7       30.15R
IMPERIAL       CLOUDY    69  48  47 SE15      30.09R
NORTH PLATTE   LGT RAIN  58  54  86 SE15      30.10F
MCCOOK         CLOUDY    72  45  37 SE10      30.10R

...EASTERN NEBRASKA...

CITY           SKY/WX    TMP DP  RH WIND       PRES   REMARKS
NORFOLK        CLOUDY    66  50  56 S8        30.15R
SO SIOUX CITY  MOCLDY    65  50  58 SE5       30.16F
TEKAMAH        MOCLDY    63  51  65 SE7       30.17S
COLUMBUS       CLOUDY    64  48  55 SE6       30.17R
ALBION         CLOUDY    64  52  64 S5        30.15S
OMAHA EPPLEY   MOCLDY    66  51  58 SE8       30.18S
OFFUTT AFB     MOCLDY    63  57  81 E6        30.18S
MILLARD        MOCLDY    66  51  59 SE5       30.17S
LINCOLN        MOCLDY    66  48  52 SE8       30.17S
NEBRASKA CITY    N/A     63  44  49 SE5       30.19S
BEATRICE       MOCLDY    66  48  52 SE6       30.17S
FALLS CITY     PTCLDY    66  52  60 S5        30.19S

...NORTHERN KANSAS...

CITY           SKY/WX    TMP DP  RH WIND       PRES   REMARKS
GOODLAND       MOCLDY    68  54  60 S20       30.08F
HILL CITY      CLOUDY    71  46  40 SE9       30.12S
NORTON         PTCLDY    70  39  32 SE14      30.10S
PHILLIPSBURG   PTCLDY    72  43  35 SE10      30.13S
SMITH CENTER   CLEAR     66  46  48 SE13      30.15S
BELOIT         CLEAR     68  48  49 E6        30.15S
RUSSELL        MOCLDY    67  48  50 SE12      30.14F
CONCORDIA      MOCLDY    61  53  75 SE5       30.17S
SALINA         PTCLDY    70  49  47 E7        30.18R
TOPEKA         PTCLDY    64  53  67 E3        30.21R



USA.gov is the U.S. government's official web portal to all federal, state and local government web resources and services.